^^
Station Historical Data
 
Daily Summary for August 20, 2017 Units:  Both    English   Metric
« Previous Day
Next Day »
Daily Weekly Monthly Yearly Custom
  Current: High: Low: Average:
Temperature: 43.3 °F /  6.3 °C 48.7 °F /  9.3 °C 41.7 °F /  5.4 °C 45.3 °F /  7.4 °C
Dew Point: 15.4 °F /  -9.2 °C 15.6 °F /  -9.1 °C 13.3 °F /  -10.4 °C 14.2 °F /  -9.9 °C
Humidity: 32% 33% 24% 28%
Wind Speed: 0.0mph /  0km/h 0.9mph /  1.4km/h - 0mph /  0km/h
Wind Gust: 0.0mph /  0km/h 5.0mph /  8km/h - -
WindCalm - - ENE
Pressure: 30.40 in /  1029.3 hPa 30.40 in /  1029.3 hPa 30.35 in /  1027.7 hPa -
Precipitation: 0.00 in /  0 mm      
Historical Graphs
 
 
Tabular Data for August 20, 2017
Time Temperature Dew Point Pressure Wind Wind Speed Wind Gust Humidity Rainfall Rate (Hourly) solar Conditions
00:04 48.7 °F /  9.3 °C 13.5 °F /  -10.3 °C 30.37in /  1028.3hPa Calm     24% 0.00in /  0mm 0.0 W/m2
00:10 48.7 °F /  9.3 °C 13.5 °F /  -10.3 °C 30.38in /  1028.7hPa Calm     24% 0.00in /  0mm 0.0 W/m2
00:16 48.6 °F /  9.2 °C 13.5 °F /  -10.3 °C 30.37in /  1028.3hPa Calm     24% 0.00in /  0mm 0.0 W/m2
00:22 48.4 °F /  9.1 °C 14.2 °F /  -9.9 °C 30.37in /  1028.3hPa Calm     25% 0.00in /  0mm 0.0 W/m2
00:29 48.0 °F /  8.9 °C 13.8 °F /  -10.1 °C 30.37in /  1028.3hPa Calm     25% 0.00in /  0mm 0.0 W/m2
00:35 48.0 °F /  8.9 °C 13.8 °F /  -10.1 °C 30.37in /  1028.3hPa Calm     25% 0.00in /  0mm 0.0 W/m2
00:41 47.7 °F /  8.7 °C 13.5 °F /  -10.3 °C 30.37in /  1028.3hPa Calm     25% 0.00in /  0mm 0.0 W/m2
00:47 47.3 °F /  8.5 °C 13.3 °F /  -10.4 °C 30.37in /  1028.3hPa Calm     25% 0.00in /  0mm 0.0 W/m2
00:53 47.1 °F /  8.4 °C 14.0 °F /  -10 °C 30.37in /  1028.3hPa Calm   1.0mph /  1.6km/h 26% 0.00in /  0mm 0.0 W/m2
00:59 46.9 °F /  8.3 °C 13.8 °F /  -10.1 °C 30.37in /  1028.3hPa Calm     26% 0.00in /  0mm 0.0 W/m2
01:05 46.9 °F /  8.3 °C 13.8 °F /  -10.1 °C 30.36in /  1028hPa Calm   1.0mph /  1.6km/h 26% 0.00in /  0mm 0.0 W/m2
01:11 47.1 °F /  8.4 °C 14.0 °F /  -10 °C 30.36in /  1028hPa Calm     26% 0.00in /  0mm 0.0 W/m2
01:17 47.1 °F /  8.4 °C 14.0 °F /  -10 °C 30.36in /  1028hPa Calm     26% 0.00in /  0mm 0.0 W/m2
01:24 47.1 °F /  8.4 °C 14.0 °F /  -10 °C 30.36in /  1028hPa Calm     26% 0.00in /  0mm 0.0 W/m2
01:30 47.1 °F /  8.4 °C 14.0 °F /  -10 °C 30.36in /  1028hPa Calm     26% 0.00in /  0mm 0.0 W/m2
01:36 46.9 °F /  8.3 °C 13.8 °F /  -10.1 °C 30.36in /  1028hPa Calm     26% 0.00in /  0mm 0.0 W/m2
01:42 46.8 °F /  8.2 °C 13.6 °F /  -10.2 °C 30.36in /  1028hPa Calm   1.0mph /  1.6km/h 26% 0.00in /  0mm 0.0 W/m2
01:48 46.8 °F /  8.2 °C 13.6 °F /  -10.2 °C 30.36in /  1028hPa Calm     26% 0.00in /  0mm 0.0 W/m2
01:54 46.8 °F /  8.2 °C 13.6 °F /  -10.2 °C 30.35in /  1027.7hPa Calm     26% 0.00in /  0mm 0.0 W/m2
02:00 46.6 °F /  8.1 °C 14.4 °F /  -9.8 °C 30.35in /  1027.7hPa Calm     27% 0.00in /  0mm 0.0 W/m2
02:06 46.0 °F /  7.8 °C 14.0 °F /  -10 °C 30.35in /  1027.7hPa Calm     27% 0.00in /  0mm 0.0 W/m2
02:13 45.9 °F /  7.7 °C 13.8 °F /  -10.1 °C 30.35in /  1027.7hPa Calm     27% 0.00in /  0mm 0.0 W/m2
02:19 45.9 °F /  7.7 °C 13.8 °F /  -10.1 °C 30.36in /  1028hPa Calm     27% 0.00in /  0mm 0.0 W/m2
02:25 45.9 °F /  7.7 °C 13.8 °F /  -10.1 °C 30.35in /  1027.7hPa Calm     27% 0.00in /  0mm 0.0 W/m2
02:31 45.7 °F /  7.6 °C 13.6 °F /  -10.2 °C 30.35in /  1027.7hPa Calm     27% 0.00in /  0mm 0.0 W/m2
02:37 45.7 °F /  7.6 °C 14.4 °F /  -9.8 °C 30.35in /  1027.7hPa Calm     28% 0.00in /  0mm 0.0 W/m2
02:43 45.7 °F /  7.6 °C 14.4 °F /  -9.8 °C 30.35in /  1027.7hPa Calm     28% 0.00in /  0mm 0.0 W/m2
02:49 45.7 °F /  7.6 °C 14.4 °F /  -9.8 °C 30.35in /  1027.7hPa Calm     28% 0.00in /  0mm 0.0 W/m2
02:55 45.5 °F /  7.5 °C 14.4 °F /  -9.8 °C 30.35in /  1027.7hPa Calm     28% 0.00in /  0mm 0.0 W/m2
03:01 45.3 °F /  7.4 °C 13.3 °F /  -10.4 °C 30.35in /  1027.7hPa Calm     27% 0.00in /  0mm 0.0 W/m2
03:07 45.3 °F /  7.4 °C 14.2 °F /  -9.9 °C 30.35in /  1027.7hPa Calm     28% 0.00in /  0mm 0.0 W/m2
03:14 45.3 °F /  7.4 °C 14.2 °F /  -9.9 °C 30.35in /  1027.7hPa Calm     28% 0.00in /  0mm 0.0 W/m2
03:20 45.3 °F /  7.4 °C 14.2 °F /  -9.9 °C 30.35in /  1027.7hPa Calm     28% 0.00in /  0mm 0.0 W/m2
03:26 45.3 °F /  7.4 °C 14.2 °F /  -9.9 °C 30.35in /  1027.7hPa Calm     28% 0.00in /  0mm 0.0 W/m2
03:32 45.3 °F /  7.4 °C 14.2 °F /  -9.9 °C 30.35in /  1027.7hPa Calm     28% 0.00in /  0mm 0.0 W/m2
03:38 45.1 °F /  7.3 °C 14.0 °F /  -10 °C 30.35in /  1027.7hPa Calm     28% 0.00in /  0mm 0.0 W/m2
03:44 45.0 °F /  7.2 °C 14.5 °F /  -9.7 °C 30.35in /  1027.7hPa Calm     29% 0.00in /  0mm 0.0 W/m2
03:50 44.8 °F /  7.1 °C 14.5 °F /  -9.7 °C 30.35in /  1027.7hPa Calm     29% 0.00in /  0mm 0.0 W/m2
03:57 44.4 °F /  6.9 °C 14.2 °F /  -9.9 °C 30.35in /  1027.7hPa Calm     29% 0.00in /  0mm 0.0 W/m2
04:03 44.4 °F /  6.9 °C 14.2 °F /  -9.9 °C 30.35in /  1027.7hPa Calm     29% 0.00in /  0mm 0.0 W/m2
04:09 45.0 °F /  7.2 °C 13.8 °F /  -10.1 °C 30.35in /  1027.7hPa Calm     28% 0.00in /  0mm 0.0 W/m2
04:17 45.1 °F /  7.3 °C 14.0 °F /  -10 °C 30.35in /  1027.7hPa Calm     28% 0.00in /  0mm 0.0 W/m2
04:25 45.1 °F /  7.3 °C 14.0 °F /  -10 °C 30.35in /  1027.7hPa Calm     28% 0.00in /  0mm 0.0 W/m2
04:31 45.1 °F /  7.3 °C 14.7 °F /  -9.6 °C 30.35in /  1027.7hPa Calm     29% 0.00in /  0mm 0.0 W/m2
04:36 45.0 °F /  7.2 °C 15.4 °F /  -9.2 °C 30.35in /  1027.7hPa Calm     30% 0.00in /  0mm 0.0 W/m2
04:42 44.2 °F /  6.8 °C 14.7 °F /  -9.6 °C 30.36in /  1028hPa Calm     30% 0.00in /  0mm 0.0 W/m2
04:48 43.5 °F /  6.4 °C 14.9 °F /  -9.5 °C 30.35in /  1027.7hPa Calm     31% 0.00in /  0mm 0.0 W/m2
04:54 43.2 °F /  6.2 °C 15.3 °F /  -9.3 °C 30.36in /  1028hPa Calm     32% 0.00in /  0mm 0.0 W/m2
05:00 42.4 °F /  5.8 °C 14.0 °F /  -10 °C 30.36in /  1028hPa Calm     31% 0.00in /  0mm 0.0 W/m2
05:06 42.3 °F /  5.7 °C 13.8 °F /  -10.1 °C 30.36in /  1028hPa Calm     31% 0.00in /  0mm 0.0 W/m2
05:12 42.1 °F /  5.6 °C 14.4 °F /  -9.8 °C 30.37in /  1028.3hPa Calm     32% 0.00in /  0mm 0.0 W/m2
05:19 41.9 °F /  5.5 °C 14.9 °F /  -9.5 °C 30.37in /  1028.3hPa Calm     33% 0.00in /  0mm 0.0 W/m2
05:25 41.7 °F /  5.4 °C 14.7 °F /  -9.6 °C 30.37in /  1028.3hPa Calm     33% 0.00in /  0mm 0.0 W/m2
05:31 42.1 °F /  5.6 °C 14.4 °F /  -9.8 °C 30.37in /  1028.3hPa Calm   1.0mph /  1.6km/h 32% 0.00in /  0mm 0.0 W/m2
05:37 42.3 °F /  5.7 °C 14.5 °F /  -9.7 °C 30.37in /  1028.3hPa Calm     32% 0.00in /  0mm 0.0 W/m2
05:43 42.6 °F /  5.9 °C 14.0 °F /  -10 °C 30.38in /  1028.7hPa ESE 0.9mph /  1.4km/h 1.0mph /  1.6km/h 31% 0.00in /  0mm 0.0 W/m2
05:49 43.2 °F /  6.2 °C 14.5 °F /  -9.7 °C 30.38in /  1028.7hPa Calm   3.0mph /  4.8km/h 31% 0.00in /  0mm 0.0 W/m2
05:55 43.3 °F /  6.3 °C 14.0 °F /  -10 °C 30.38in /  1028.7hPa Calm   4.0mph /  6.4km/h 30% 0.00in /  0mm 0.0 W/m2
06:02 43.5 °F /  6.4 °C 14.2 °F /  -9.9 °C 30.39in /  1029hPa NE 0.9mph /  1.4km/h 5.0mph /  8km/h 30% 0.00in /  0mm 0.0 W/m2
06:08 43.9 °F /  6.6 °C 14.4 °F /  -9.8 °C 30.39in /  1029hPa Calm   2.0mph /  3.2km/h 30% 0.00in /  0mm 0.0 W/m2
06:14 44.1 °F /  6.7 °C 14.5 °F /  -9.7 °C 30.40in /  1029.3hPa Calm   1.0mph /  1.6km/h 30% 0.00in /  0mm 0.0 W/m2
06:20 44.1 °F /  6.7 °C 14.5 °F /  -9.7 °C 30.40in /  1029.3hPa Calm   1.0mph /  1.6km/h 30% 0.00in /  0mm 7.0 W/m2
06:26 44.1 °F /  6.7 °C 14.5 °F /  -9.7 °C 30.40in /  1029.3hPa Calm     30% 0.00in /  0mm 9.0 W/m2
06:32 44.1 °F /  6.7 °C 15.3 °F /  -9.3 °C 30.40in /  1029.3hPa Calm   1.0mph /  1.6km/h 31% 0.00in /  0mm 12.0 W/m2
06:38 43.5 °F /  6.4 °C 15.6 °F /  -9.1 °C 30.40in /  1029.3hPa Calm     32% 0.00in /  0mm 14.0 W/m2
06:46 43.3 °F /  6.3 °C 15.4 °F /  -9.2 °C 30.40in /  1029.3hPa Calm     32% 0.00in /  0mm 16.0 W/m2
Olympia, Windhoek, Namibia
Compliments of Weather Underground - 2 mb